Waarnemingen

Advertentie
Mijn weer
Langres, Frankrijk (7283): temperatuur & dauwpunt: 13.04.2019 06:00:00 - 19.04.2019 06:00:00 (CEST)Langres, Frankrijk (7283): temperatuur 5cm: 13.04.2019 06:00:00 - 19.04.2019 06:00:00 (CEST)Langres, Frankrijk (7283): windsnelheid & windstoten: 13.04.2019 06:00:00 - 19.04.2019 06:00:00 (CEST)Langres, Frankrijk (7283): windrichting: 13.04.2019 06:00:00 - 19.04.2019 06:00:00 (CEST)Langres, Frankrijk (7283): luchtdruk: 13.04.2019 06:00:00 - 19.04.2019 06:00:00 (CEST)Langres, Frankrijk (7283): zicht: 13.04.2019 06:00:00 - 19.04.2019 06:00:00 (CEST)Langres, Frankrijk (7283): Zonneschijnduur: 13.04.2019 06:00:00 - 19.04.2019 06:00:00 (CEST)Langres, Frankrijk (7283): neerslag: 13.04.2019 06:00:00 - 19.04.2019 06:00:00 (CEST)
Datum & Tijd tt [°C] td [°C] tt 5cm [°C] ff [km/u] ff [kn] fx [km/u] fx [kn] dd ppp [hPa] vv [km] sd [min] rr [mm]
19.04.2019 06:00:00 10,8 4,3 3,2 3 2 11 6 ZO 1023,5 20 0 0,0
19.04.2019 05:00:00 11,3 4,0 6,7 7 4 11 6 OZO 1023,2 20 0 0,0
19.04.2019 04:00:00 12,1 3,8 5,7 5 3 9 5 ONO 1022,7 20 0 0,0
19.04.2019 03:00:00 13,2 3,0 3,9 8 4 10 6 OZO 1022,1 20 0 0,0
19.04.2019 02:00:00 13,4 3,2 4,0 6 3 10 6 OZO 1022,1 20 0 0,0
19.04.2019 01:00:00 13,2 4,3 4,7 6 3 10 5 O 1022,0 20 0 0,0
19.04.2019 00:00:00 13,5 5,1 5,5 5 3 12 6 ONO 1021,7 20 0 0,0
18.04.2019 23:00:00 13,5 5,1 6,1 6 3 14 7 ONO 1021,4 20 0 0,0
18.04.2019 22:00:00 14,9 5,1 8,5 5 3 12 7 NO 1020,6 20 0 0,0
18.04.2019 21:00:00 16,1 5,4 9,1 4 2 11 6 NNO 1019,9 20 8 0,0
18.04.2019 20:00:00 18,3 4,1 15,4 5 3 11 6 NNO 1019,1 20 55 0,0
18.04.2019 19:00:00 19,6 6,0 20,8 5 3 11 6 ONO 1018,5 20 60 0,0
18.04.2019 18:00:00 20,5 4,5 22,5 6 3 16 9 ONO 1018,3 20 56 0,0
18.04.2019 17:00:00 20,8 4,4 24,8 8 4 22 12 ONO 1018,1 20 60 0,0
18.04.2019 16:00:00 20,5 4,9 25,0 10 5 24 13 ONO 1018,2 20 60 0,0
18.04.2019 15:00:00 20,4 5,6 24,2 12 7 22 12 O 1018,4 20 60 0,0
18.04.2019 14:00:00 19,0 6,8 23,4 12 7 23 12 O 1018,7 18 60 0,0
18.04.2019 13:00:00 17,8 8,4 21,6 11 6 19 10 ONO 1019,1 18 60 0,0
18.04.2019 12:00:00 16,8 8,5 21,0 9 5 19 10 ONO 1019,6 20 60 0,0
18.04.2019 11:00:00 16,4 8,9 18,2 9 5 18 10 ZZO 1019,9 20 60 0,0
18.04.2019 10:00:00 13,9 7,9 13,3 10 6 16 8 O 1020,5 20 60 0,0
18.04.2019 09:00:00 11,3 7,2 12,3 10 6 16 9 O 1020,6 20 54 0,0
18.04.2019 08:00:00 10,4 6,9 8,1 11 6 16 9 O 1020,4 20 52 0,0
18.04.2019 07:00:00 9,0 6,6 7,0 9 5 13 7 O 1020,3 20 0 0,0
18.04.2019 06:00:00 8,7 6,3 6,8 7 4 14 8 O 1020,2 20 0 0,0
18.04.2019 05:00:00 9,2 6,3 7,5 9 5 16 9 O 1020,1 20 0 -
18.04.2019 04:00:00 10,4 6,5 7,5 10 6 18 10 OZO 1019,9 20 0 0,0
18.04.2019 03:00:00 10,1 6,2 8,0 8 5 14 8 O 1019,7 20 0 0,0
18.04.2019 02:00:00 10,2 6,3 7,4 8 5 14 8 O 1019,8 20 0 0,0
18.04.2019 01:00:00 10,1 6,6 7,2 9 5 14 8 ONO 1019,6 20 0 0,0
18.04.2019 00:00:00 10,3 6,6 7,7 8 4 16 8 ONO 1019,5 20 0 0,0
17.04.2019 23:00:00 10,9 6,4 7,1 8 4 13 7 ONO 1019,5 20 0 0,0
17.04.2019 22:00:00 11,3 6,0 7,1 5 3 13 7 ONO 1019,4 20 0 0,0
17.04.2019 21:00:00 12,7 5,6 7,6 3 2 11 6 ONO 1018,6 20 7 0,0
17.04.2019 20:00:00 14,2 5,8 12,6 5 3 19 11 ONO 1017,9 20 28 0,0
17.04.2019 19:00:00 16,4 5,6 18,4 7 4 16 9 ONO 1017,8 20 60 0,0
17.04.2019 18:00:00 17,0 6,5 19,1 4 2 13 7 O 1017,7 20 53 0,0
17.04.2019 17:00:00 16,3 6,7 18,5 6 4 18 10 O 1018,1 20 50 0,0
17.04.2019 16:00:00 17,4 6,9 18,3 10 6 21 12 ZZO 1018,4 20 40 0,0
17.04.2019 15:00:00 15,6 7,4 16,3 9 5 21 11 ZZO 1019,2 20 38 0,0
17.04.2019 14:00:00 13,7 7,9 15,7 8 4 17 9 O 1019,7 20 29 0,0
17.04.2019 13:00:00 13,4 9,6 11,9 5 3 14 8 O 1020,2 20 28 0,0
17.04.2019 12:00:00 10,3 8,9 10,7 7 4 16 9 O 1021,0 15 0 0,0
17.04.2019 11:00:00 9,5 8,7 10,3 8 5 16 8 O 1021,3 12 0 0,0
17.04.2019 10:00:00 8,8 8,0 9,2 8 5 14 8 O 1021,3 0,3 0 0,0
17.04.2019 09:00:00 8,3 7,5 8,4 5 3 9 5 ONO 1021,2 0,2 0 0,0
17.04.2019 08:00:00 8,4 7,6 6,1 0 0 6 3 N 1021,0 7 1 0,0
17.04.2019 07:00:00 7,5 6,8 6,4 0 0 4 2 N 1020,9 6 0 0,0
17.04.2019 06:00:00 7,0 6,3 5,1 0 0 4 2 N 1020,7 1,8 0 0,0
17.04.2019 05:00:00 7,2 6,5 5,7 0 0 6 4 N 1020,5 2,7 0 0,0
17.04.2019 04:00:00 7,7 6,9 5,3 3 2 8 5 ZW 1020,6 3,0 0 0,0
17.04.2019 03:00:00 7,2 6,5 3,6 5 3 10 5 W 1020,6 0,5 0 0,0
17.04.2019 02:00:00 7,4 6,5 4,8 5 3 10 5 ZW 1020,7 3,2 0 0,0
17.04.2019 01:00:00 8,7 7,8 8,3 5 3 9 5 ZW 1020,3 6 0 0,0
17.04.2019 00:00:00 8,9 8,0 8,7 8 4 15 8 WZW 1020,3 10 0 0,0
16.04.2019 23:00:00 9,1 8,2 8,9 8 4 16 9 W 1020,0 14 0 0,0
16.04.2019 22:00:00 9,2 8,4 9,0 6 3 17 9 WZW 1019,6 9 0 0,2
16.04.2019 21:00:00 9,1 8,3 9,0 10 6 25 13 ZZW 1019,0 4,5 0 0,4
16.04.2019 20:00:00 9,0 8,1 9,0 14 7 23 13 Z 1018,2 1,4 0 0,8
16.04.2019 19:00:00 9,1 8,2 9,2 14 8 27 14 Z 1017,9 8 0 0,0
16.04.2019 18:00:00 9,2 8,1 9,4 14 8 27 15 Z 1017,7 2,2 0 0,4
16.04.2019 17:00:00 9,2 8,0 9,4 17 9 31 17 Z 1017,3 2,3 0 0,4
16.04.2019 16:00:00 9,7 8,0 9,8 17 9 31 17 Z 1017,1 4,6 0 0,2
16.04.2019 15:00:00 10,5 8,1 9,6 16 9 33 18 Z 1017,0 20 0 0,2
16.04.2019 14:00:00 9,6 7,0 9,4 18 10 40 22 Z 1017,2 19 0 0,4
16.04.2019 13:00:00 10,6 6,9 9,9 22 12 40 21 Z 1017,0 20 0 0,0
16.04.2019 12:00:00 9,5 6,6 9,4 20 11 48 26 Z 1017,2 20 0 0,2
16.04.2019 11:00:00 9,5 5,7 9,8 27 15 44 24 Z 1016,9 19 0 0,0
16.04.2019 10:00:00 9,0 5,9 8,7 15 8 29 16 Z 1016,8 20 0 0,0
16.04.2019 09:00:00 8,5 4,5 8,0 15 8 27 14 Z 1016,7 20 0 0,0
16.04.2019 08:00:00 8,1 4,5 7,2 13 7 27 15 ZZW 1016,2 20 0 0,0
16.04.2019 07:00:00 7,4 4,2 6,1 18 10 32 17 Z 1015,9 20 0 0,0
16.04.2019 06:00:00 7,3 4,1 6,4 16 9 33 18 ZZW 1015,6 20 0 0,0
16.04.2019 05:00:00 7,4 4,2 6,7 18 10 31 17 Z 1015,4 20 0 0,0
16.04.2019 04:00:00 7,7 3,9 6,8 20 11 46 25 Z 1015,6 20 0 0,0
16.04.2019 03:00:00 8,2 3,6 6,5 24 13 43 23 Z 1015,1 20 0 0,0
16.04.2019 02:00:00 7,8 2,9 6,6 21 11 31 17 ZZO 1015,6 20 0 0,0
16.04.2019 01:00:00 8,8 3,2 6,6 11 6 18 10 ZO 1015,7 16 0 0,0
16.04.2019 00:00:00 8,9 2,9 6,4 9 5 15 8 OZO 1015,4 17 0 0,0
15.04.2019 23:00:00 9,3 2,4 6,4 9 5 17 9 OZO 1015,4 20 0 0,0
15.04.2019 22:00:00 9,7 1,6 7,3 11 6 18 10 OZO 1015,3 20 0 0,0
15.04.2019 21:00:00 10,3 1,4 7,3 8 5 14 8 O 1015,2 20 4 0,0
15.04.2019 20:00:00 11,7 1,0 10,6 7 4 23 13 O 1014,8 20 45 0,0
15.04.2019 19:00:00 13,5 1,5 15,2 13 7 22 12 ONO 1014,7 20 60 0,0
15.04.2019 18:00:00 14,0 1,3 16,5 10 5 25 13 O 1015,1 20 60 0,0
15.04.2019 17:00:00 14,2 1,5 17,8 12 6 28 15 OZO 1015,6 20 58 0,0
15.04.2019 16:00:00 14,1 2,0 18,1 14 7 29 16 O 1016,3 19 60 0,0
15.04.2019 15:00:00 13,2 2,7 17,4 16 8 29 16 O 1017,3 19 60 0,0
15.04.2019 14:00:00 11,9 2,3 15,5 13 7 34 18 O 1018,5 16 60 0,0
15.04.2019 13:00:00 10,4 1,5 13,7 18 10 32 17 O 1019,2 17 60 0,0
15.04.2019 12:00:00 9,3 -0,1 12,4 16 9 31 17 O 1020,0 17 60 0,0
15.04.2019 11:00:00 7,8 0,0 10,6 14 8 27 15 O 1020,6 17 60 0,0
15.04.2019 10:00:00 6,0 -0,1 7,3 10 6 18 10 ONO 1021,4 13 60 0,0
15.04.2019 09:00:00 3,5 -0,5 3,4 10 5 14 8 ONO 1022,3 10 60 0,0
15.04.2019 08:00:00 1,0 -1,6 -1,1 8 4 13 7 NNO 1023,0 7 44 0,0
15.04.2019 07:00:00 -0,1 -1,8 -1,2 6 4 13 7 NNO 1023,2 4,5 0 0,0
15.04.2019 06:00:00 0,4 -1,8 -1,0 6 3 13 7 NNO 1023,1 5 0 0,0
15.04.2019 05:00:00 1,5 -1,2 -1,0 6 4 17 9 NNO 1022,9 7 0 0,0
15.04.2019 04:00:00 1,2 -1,4 0,0 6 4 19 10 NNO 1023,0 6 0 0,0
15.04.2019 03:00:00 1,9 -1,2 0,8 8 4 18 10 NNO 1023,6 6 0 0,0
15.04.2019 02:00:00 2,1 -1,0 0,9 7 4 16 9 NNO 1023,8 7 0 0,0
15.04.2019 01:00:00 2,4 -1,0 1,2 7 4 16 9 NNO 1023,9 9 0 0,0
15.04.2019 00:00:00 2,6 -1,0 0,2 8 4 15 8 NNO 1023,7 10 0 0,0
14.04.2019 23:00:00 2,6 -1,0 0,7 6 4 12 7 NNO 1023,5 11 0 0,0
14.04.2019 22:00:00 2,8 -1,0 0,8 3 2 16 9 NO 1023,3 12 0 0,0
14.04.2019 21:00:00 3,7 -1,3 2,7 8 4 21 12 NO 1022,8 15 0 0,0
14.04.2019 20:00:00 5,3 -2,1 5,3 9 5 20 11 NNO 1022,4 20 0 0,0
14.04.2019 19:00:00 5,9 -3,0 6,5 7 4 22 12 NNO 1021,8 20 20 0,0
14.04.2019 18:00:00 6,5 -2,7 8,7 12 6 27 15 NNO 1020,7 19 51 0,0
14.04.2019 17:00:00 6,9 -3,9 7,8 11 6 27 14 NO 1020,6 19 31 0,0
14.04.2019 16:00:00 6,7 -6,0 8,2 10 5 29 16 NO 1020,9 19 32 0,0
14.04.2019 15:00:00 6,1 -4,1 7,1 8 4 26 14 NO 1021,0 20 37 0,0
14.04.2019 14:00:00 5,2 -3,1 6,9 13 7 25 14 NNO 1020,9 19 29 0,0
14.04.2019 13:00:00 4,7 -4,3 8,4 11 6 25 13 NNO 1021,0 20 45 0,0
14.04.2019 12:00:00 3,6 -2,6 5,5 11 6 25 14 NNO 1021,2 14 35 0,0
14.04.2019 11:00:00 3,5 -2,3 6,6 11 6 25 13 N 1021,1 18 58 0,0
14.04.2019 10:00:00 1,8 -2,3 4,5 10 5 22 12 NO 1021,0 13 60 0,0
14.04.2019 09:00:00 0,0 -3,4 0,0 7 4 16 8 NO 1021,3 9 60 0,0
14.04.2019 08:00:00 -1,4 -3,6 -4,4 6 4 11 6 N 1021,6 8 44 0,0
14.04.2019 07:00:00 -2,6 -4,2 -4,3 6 4 16 9 N 1021,5 8 0 0,0
14.04.2019 06:00:00 -2,5 -4,4 -4,4 3 2 9 5 NNW 1021,4 9 0 -
14.04.2019 05:00:00 -2,1 -4,3 -3,8 6 3 13 7 NW 1021,5 12 0 0,0
14.04.2019 04:00:00 -1,1 -3,8 -2,4 9 5 16 9 N 1021,1 15 0 0,0
14.04.2019 03:00:00 -0,9 -3,8 -3,1 9 5 14 8 N 1021,1 19 0 0,0
14.04.2019 02:00:00 -0,8 -4,5 -3,0 5 3 13 7 NNW 1021,6 20 0 0,0
14.04.2019 01:00:00 -0,1 -4,2 -2,0 8 5 16 9 NNO 1021,6 20 0 0,0
14.04.2019 00:00:00 0,4 -4,8 -0,8 10 5 19 10 N 1021,9 20 0 0,0
13.04.2019 23:00:00 1,1 -5,8 -0,4 8 4 19 10 N 1021,9 20 0 0,0
13.04.2019 22:00:00 2,1 -7,3 0,4 8 5 15 8 N 1021,9 20 0 0,0
13.04.2019 21:00:00 2,7 -7,5 0,9 8 4 16 9 N 1021,8 20 1 0,0
13.04.2019 20:00:00 3,8 -7,4 4,0 8 5 23 12 N 1021,1 20 20 0,0
13.04.2019 19:00:00 4,3 -8,5 4,9 12 7 29 16 NNO 1020,7 20 23 0,0
13.04.2019 18:00:00 4,9 -7,9 6,2 14 8 29 16 N 1020,7 20 5 0,0
13.04.2019 17:00:00 5,9 -7,4 8,5 16 8 29 16 N 1020,3 20 21 0,0
13.04.2019 16:00:00 7,5 -4,9 9,3 9 5 29 16 NNW 1019,9 20 18 0,0
13.04.2019 15:00:00 7,9 -4,6 9,1 11 6 25 13 NW 1019,9 20 31 0,0
13.04.2019 14:00:00 6,4 -6,2 8,8 14 7 28 15 NNW 1020,4 20 9 0,0
13.04.2019 13:00:00 5,9 -5,4 8,7 12 7 24 13 NNO 1020,5 20 30 0,0
13.04.2019 12:00:00 5,4 -4,2 8,3 14 8 31 17 NNO 1020,8 20 42 0,0
13.04.2019 11:00:00 4,8 -4,5 8,4 14 7 31 17 NNO 1021,1 20 60 0,0
13.04.2019 10:00:00 2,9 -3,0 4,5 13 7 23 13 N 1021,3 18 60 0,0
13.04.2019 09:00:00 0,8 -4,2 1,4 8 5 19 10 NNW 1021,7 20 60 0,0
13.04.2019 08:00:00 -0,5 -4,7 -2,2 8 4 16 9 NW 1021,8 20 27 0,0
13.04.2019 07:00:00 -0,9 -5,0 -2,3 8 4 16 9 NNW 1021,5 20 0 0,0
13.04.2019 06:00:00 -0,5 -4,7 -1,8 9 5 17 9 NW 1021,3 20 0 0,0

tt = temperatuur
td = dauwpunt
tt 5cm = temperatuur 5cm
ff = windsnelheid
fx = windstoten
dd = windrichting
ppp = luchtdruk
vv = zicht
sd = Zonneschijnduur
rr = neerslag

Weerstations in de omgeving